SCP
0 0 0 0 0 0 0 0 0 0 0 0 0 0 0 0 0 0 0 0 0 0 0 0 0 0 0 0 0 0 0 0 0 0 0 0 0 0 0 0 0 0 0
0 0 0 0 0 0 0 0 0 0 0 0 0 0 0 0 0 0 0 0 0 0 0 0 0 0 0 0 0 0 0 0 0 0 0 0 0 0 0 0 0 0 0
0 0 0 0 0 0 0 0 0 0 0 0 0 0 0 0 0 0 0 0 0 0 0 0 0 0 0 0 0 0 0 0 0 0 0 0 0 0 0 0 0 0 0
0 0 0 0 0 0 0 0 0 0 0 0 0 0 0 0 0 0 0 0 0 0 0 0 0 0 0 0 0 0 0 0 0 0 0 0 0 0 0 0 0 0 0
0 0 0 0 0 0 0 0 0 0 0 0 0 0 0 0 0 0 0 0 0 0 0 0 0 0 0 0 0 0 0 0 0 0 0 0 0 0 0 0 0 0 0
0 0 0 0 0 0 0 0 0 0 0 0 0 0 0 0 0 0 0 0 0 0 0 0 0 0 0 0 0 0 0 0 0 0 0 0 0 0 0 0 0 0 0
1 1 1 1 1 1 0 0 0 0 0 0 0 0 0 0 0 0 0 0 0 0 0 0 0 0 0 0 0 0 0 0 0 0 0 0 0 0 0 0 0 0 0
1 1 1 1 1 1 0 0 0 0 0 0 0 0 0 0 0 0 0 0 0 0 0 0 0 0 0 0 0 0 0 0 0 0 0 0 0 0 0 0 0 0 0
1 1 1 1 0 0 0 0 0 0 0 0 0 0 0 0 0 0 0 0 0 0 0 0 0 0 0 0 0 0 0 0 0 0 0 0 0 0 0 0 0 0 0
1 1 1 0 0 0 0 0 0 0 0 0 0 0 0 0 0 0 0 0 0 0 0 0 0 0 0 0 0 0 0 0 0 0 0 0 0 0 0 0 0 0 0
1 1 1 1 0 0 0 0 0 0 0 0 0 0 0 0 0 0 0 0 0 0 0 0 0 0 0 0 0 0 0 0 0 0 0 0 0 0 0 0 0 0 0
1 1 1 1 1 1 1 0 0 0 0 0 1 1 1 0 0 0 0 0 0 0 0 0 0 0 0 0 0 0 0 0 0 0 0 0 0 0 0 0 0 0 0
1 1 1 1 1 1 1 1 1 0 0 0 0 0 1 1 0 0 0 0 0 0 0 0 0 0 0 0 0 0 0 0 0 0 0 0 0 0 0 0 0 0 0
1 1 1 1 1 1 1 1 1 1 0 0 0 0 1 1 0 0 0 0 0 0 0 0 0 0 0 0 0 0 0 0 0 0 0 0 0 0 0 0 0 0 0
0 0 1 1 1 1 1 1 1 1 0 0 0 0 0 0 0 0 0 0 0 0 0 0 0 0 0 0 0 0 0 0 0 0 0 0 0 0 0 0 0 0 0
0 0 0 0 1 1 1 1 1 1 0 0 0 0 0 0 0 0 0 0 0 0 0 0 0 0 0 0 0 0 0 0 0 0 0 0 0 0 0 0 0 0 0
0 0 0 0 0 0 0 0 0 0 0 0 0 0 0 0 0 0 0 0 0 0 0 0 0 0 0 0 0 0 0 0 0 0 0 0 0 0 0 0 0 0 0
0 0 0 0 0 0 0 0 0 0 0 0 0 0 0 0 0 0 0 0 0 0 0 0 0 0 0 0 0 0 0 0 0 0 0 0 0 0 0 0 0 0 0
0 0 0 0 0 0 0 0 0 0 0 0 0 0 0 0 0 0 0 0 0 0 0 0 0 0 0 0 0 0 0 0 0 0 0 0 0 0 0 0 0 0 0
0 0 0 0 0 0 0 0 0 0 0 0 0 0 0 0 0 0 0 0 0 0 0 0 0 0 0 0 0 0 0 0 0 0 0 0 0 0 0 0 0 0 0
0 0 0 0 0 0 0 0 0 0 0 0 0 0 0 0 0 0 0 0 0 0 0 0 0 0 0 0 0 0 0 0 0 0 0 0 0 0 0 0 0 0 0
0 0 0 0 0 0 0 0 0 0 0 0 0 0 0 0 0 0 0 0 0 0 0 0 0 0 0 0 0 0 0 0 0 0 0 0 0 0 0 0 0 0 0
0 0 0 0 0 0 0 0 0 0 0 0 0 0 0 0 0 0 0 0 0 0 0 0 0 0 0 0 0 0 0 0 0 0 0 0 0 0 0 0 0 0 0
0 0 0 0 0 0 0 0 0 0 0 0 0 0 0 0 0 0 0 0 0 0 0 0 0 0 0 0 0 0 0 0 0 0 0 0 0 0 0 0 0 0 0
0 0 0 0 0 0 0 0 0 0 0 0 0 0 0 0 0 0 0 0 0 0 0 0 0 0 0 0 0 0 0 0 0 0 0 0 0 0 0 0 0 0 0
0 0 0 0 0 0 0 0 0 0 0 0 0 0 0 0 0 0 0 0 0 0 0 0 0 0 0 0 0 0 0 0 0 0 0 0 0 0 0 0 0 0 0
Wind_Speed
7 6 5 5 6 5 6 6 6 6 6 6 5 5 5 4 3 3 5 6 3 1 2 3 4 3 3 2 3 4 4 4 4 4 5 5 5 5 4 3 3 2 1
7 6 7 6 6 6 5 6 7 5 6 5 6 6 5 4 4 3 3 7 6 3 1 2 3 3 3 2 2 3 3 3 3 4 4 4 4 4 3 2 1 1 2
8 8 7 7 6 7 8 6 7 6 5 5 6 6 5 5 4 4 4 2 6 7 4 2 1 2 3 3 2 3 3 3 3 3 3 3 3 2 2 1 2 3 3
10 8 7 7 7 6 6 6 6 6 6 6 6 6 5 5 7 4 4 5 3 4 8 5 2 1 3 3 3 3 3 3 3 3 3 3 2 2 2 2 3 4 4
11 9 7 7 8 6 6 7 7 7 7 6 5 5 5 5 5 6 6 5 5 4 4 8 6 3 2 2 2 2 3 3 4 4 3 3 2 2 2 2 3 3 4
10 9 7 8 8 6 7 7 7 6 6 5 6 6 5 5 5 6 5 4 5 6 4 5 6 7 6 3 2 2 2 3 3 4 3 3 2 2 1 2 2 3 3
9 9 8 9 8 8 9 9 8 9 7 7 6 6 6 8 7 5 6 5 6 5 6 6 4 4 6 8 5 3 2 2 3 3 3 3 3 2 2 2 3 3 4
9 8 9 7 8 8 9 9 8 7 7 7 7 5 6 7 6 7 7 6 7 6 7 7 7 6 4 5 8 6 3 2 2 3 3 3 2 2 2 2 2 3 3
10 9 9 8 8 8 8 9 9 10 8 8 8 6 6 6 5 6 8 8 7 5 6 6 7 7 7 5 6 9 7 4 4 4 3 3 3 2 2 2 2 1 1
9 9 10 10 10 9 9 10 10 9 8 7 7 7 7 4 4 4 5 6 6 7 7 6 6 6 6 5 4 5 8 6 6 5 4 4 3 3 2 1 1 1 1
8 9 9 10 10 8 10 10 9 10 8 8 6 6 7 4 8 5 4 4 5 5 5 6 5 5 6 6 5 7 9 8 7 7 6 5 4 3 3 2 2 2 2
4 7 8 9 9 8 9 9 9 10 8 8 6 5 5 5 6 6 6 5 4 3 3 2 4 4 4 5 7 6 9 9 8 8 7 6 5 4 3 3 3 3 3
3 4 5 7 7 8 8 8 8 9 9 9 8 6 6 5 4 4 5 4 4 3 3 3 4 3 4 4 5 7 9 9 9 9 7 7 6 5 5 4 4 4 4
1 2 3 4 6 7 7 7 7 9 8 8 9 8 5 4 4 4 4 3 4 4 4 4 2 2 3 4 2 5 7 10 9 9 8 8 7 6 6 5 5 5 5
1 0 1 2 3 4 6 7 6 7 7 8 7 7 5 4 4 4 3 4 4 4 4 3 2 2 2 2 2 5 6 9 9 8 8 8 8 7 7 6 6 6 6
4 3 2 1 2 2 3 5 5 6 7 6 6 7 6 4 4 3 4 4 4 3 3 3 2 2 1 2 2 4 2 8 6 6 6 7 7 7 6 6 6 6 6
6 5 5 4 3 2 2 2 3 5 6 6 6 7 6 5 4 4 4 4 4 3 3 2 2 2 2 2 2 2 2 4 5 5 3 4 4 4 5 5 5 5 6
7 7 6 6 5 4 3 3 2 3 4 5 6 6 6 5 5 4 4 4 4 4 3 3 3 2 2 1 2 2 2 2 3 7 4 3 2 2 1 1 2 3 4
8 8 8 7 6 5 4 3 3 3 3 4 4 5 5 5 5 4 5 4 4 4 3 3 3 2 2 2 3 3 4 3 3 6 6 6 6 5 5 3 3 3 2
9 8 8 7 7 6 5 4 3 2 3 3 3 4 4 5 5 5 5 5 5 4 4 3 3 3 3 2 2 3 4 3 3 4 5 6 8 8 7 7 6 5 5
9 9 9 9 8 7 7 5 3 3 3 3 3 3 2 2 2 2 3 5 5 4 4 4 4 4 3 3 2 2 4 4 5 3 4 5 5 5 5 6 7 8 8
10 9 9 9 9 7 9 8 5 3 3 4 3 3 3 3 4 4 4 4 2 3 4 4 4 4 4 4 3 3 4 4 4 3 4 6 5 6 6 7 10 11 11
9 9 9 9 9 9 10 8 6 3 4 4 3 2 3 4 4 6 8 9 8 7 3 2 5 5 5 4 4 4 4 4 5 3 4 5 5 6 6 9 14 14 14
8 8 8 8 7 10 12 9 5 4 5 4 4 3 3 4 5 6 8 8 8 7 4 4 6 6 6 4 4 5 6 7 6 4 3 4 4 5 6 8 14 16 16
7 7 7 8 8 9 12 10 6 4 4 5 5 4 3 4 5 2 7 9 9 8 10 13 13 11 11 9 4 3 5 5 5 4 3 3 4 5 5 6 9 14 15
6 6 7 7 8 8 12 11 7 3 4 5 4 5 6 5 4 1 5 8 9 8 8 9 8 8 8 7 4 2 2 3 5 4 3 2 4 4 4 4 4 4 7
Wind_Direction
228 221 218 209 219 212 200 214 220 202 212 210 212 214 192 182 179 157 123 127 131 146 150 148 140 134 124 117 123 126 122 125 125 125 126 126 128 130 130 134 127 124 134
235 230 231 215 220 218 216 214 213 202 213 210 212 212 218 196 197 170 149 146 154 153 179 187 168 162 163 155 149 148 143 142 146 144 140 140 140 144 147 153 178 228 258
238 234 235 224 217 212 213 215 207 212 214 207 211 212 209 215 218 190 160 169 158 162 176 214 209 186 182 184 188 171 166 170 170 167 163 159 160 171 185 214 248 269 273
241 238 235 233 227 216 213 205 215 209 207 211 209 199 200 188 219 201 190 183 171 161 166 171 199 211 198 191 187 176 182 179 182 183 181 178 185 201 235 264 273 278 279
246 237 234 232 222 214 212 210 209 214 214 213 215 206 214 200 206 206 214 192 166 184 165 148 174 180 174 183 183 187 189 186 188 185 187 192 199 216 249 270 282 288 285
250 241 233 233 227 216 212 213 208 216 226 218 223 212 214 212 213 216 225 207 203 190 180 166 181 170 173 178 186 190 183 182 184 190 192 188 185 196 223 258 276 286 290
247 241 234 228 220 218 215 212 210 210 217 216 219 215 215 222 226 201 223 222 215 198 200 190 200 181 166 176 187 189 195 189 187 189 184 174 172 192 227 250 270 279 286
242 238 235 229 223 220 219 216 213 214 212 210 216 216 219 213 220 224 218 228 233 200 220 215 199 192 201 180 144 170 179 189 204 192 185 184 185 201 223 251 270 278 287
237 233 231 230 227 220 217 215 210 212 212 212 218 214 219 221 202 208 218 220 229 227 225 232 227 208 197 202 168 173 181 196 213 217 205 192 186 198 229 245 257 276 291
239 233 230 229 225 222 220 216 213 214 213 212 216 230 243 241 217 200 204 219 221 226 231 224 235 237 216 211 186 145 174 195 210 222 220 207 201 205 206 213 229 267 244
233 229 226 227 225 221 223 221 215 214 213 214 208 207 224 233 241 237 220 206 203 214 224 230 229 236 235 223 210 186 178 198 209 221 225 220 213 210 207 205 226 225 200
235 228 222 222 221 219 218 216 212 212 214 218 213 209 206 211 223 227 233 229 223 210 216 227 242 238 238 236 222 160 180 202 211 219 225 221 219 220 223 218 224 222 215
239 238 226 220 217 217 214 210 207 209 210 211 210 213 218 222 219 220 227 227 222 218 222 224 222 225 231 236 219 168 197 205 212 216 220 216 211 217 230 238 241 243 238
258 245 230 226 220 214 210 207 208 208 205 206 210 208 209 210 207 214 221 213 216 213 217 221 193 223 237 236 170 202 207 196 208 214 218 215 209 212 222 236 248 259 264
347 301 189 188 199 203 202 198 204 203 202 205 202 202 201 194 197 208 216 215 213 215 213 202 187 177 222 246 153 222 221 169 193 207 215 215 212 214 221 230 238 246 256
22 28 49 94 130 156 188 198 195 195 194 194 193 192 188 187 192 196 205 204 210 216 211 175 180 167 184 209 178 242 177 143 175 192 206 214 215 218 225 233 239 244 248
33 39 44 54 75 91 126 164 175 180 186 187 187 187 190 187 185 185 190 194 198 204 209 173 166 184 192 197 168 201 183 189 150 154 176 198 208 217 228 239 246 251 257
36 38 44 50 57 65 77 100 132 164 179 180 176 175 175 172 171 174 178 183 183 192 194 179 164 163 166 139 155 160 165 159 133 119 127 124 130 153 194 253 270 274 274
39 41 44 44 46 51 61 79 97 115 139 157 166 168 168 166 167 170 175 175 177 177 177 174 145 141 150 147 155 148 138 130 125 127 126 111 93 83 70 56 38 15 351
40 39 42 41 40 41 42 60 87 98 107 121 137 145 153 161 170 170 172 171 167 162 163 159 150 148 137 145 162 151 133 122 113 109 96 99 100 92 78 65 57 47 38
39 37 40 38 34 31 30 27 56 86 96 106 112 119 123 119 124 166 172 165 162 164 161 159 152 145 138 145 141 145 131 122 93 84 95 88 91 78 74 66 57 52 52
36 37 36 35 34 30 25 30 27 80 89 91 95 108 128 144 128 124 93 82 98 155 154 149 145 138 126 122 129 143 142 144 113 77 89 78 71 67 54 47 50 57 58
34 34 32 30 31 30 29 37 33 59 79 79 85 103 122 132 149 136 129 125 94 59 30 116 124 116 120 124 136 129 116 102 95 96 102 89 81 76 68 57 57 60 60
32 29 27 25 27 29 28 32 24 71 82 83 85 96 124 137 132 143 142 126 112 94 68 90 96 92 88 101 103 103 108 110 105 89 99 99 96 90 84 70 61 63 62
29 29 29 24 23 29 27 25 15 76 87 85 82 77 86 108 90 132 139 126 114 99 71 65 66 77 68 46 27 134 143 142 123 103 89 108 119 107 92 93 84 77 70
25 28 36 32 30 29 28 24 12 74 85 85 81 81 69 79 83 353 150 138 130 123 124 121 115 125 108 89 11 69 104 131 130 116 101 125 145 144 114 84 82 88 85